This is the latest recevied weather packets stored in our database for station/object N7NIP. If no packets are shown the sender has not sent any weather packets the latest 10 day(s).
| Time | Temp. | Humidity | Pressure | Rain* | Wind** | Luminosity | Snow |
|---|---|---|---|---|---|---|---|
| 1777645989 | 9.44° C | 99% | 1031.3 hPa | 0 mm | - | 105 W/m² | - |
| 1777645686 | 9.44° C | 99% | 1031.2 hPa | 0 mm | - | 103 W/m² | - |
| 1777645382 | 8.89° C | 99% | 1031.2 hPa | 0 mm | - | 98 W/m² | - |
| 1777645078 | 8.89° C | 99% | 1031.1 hPa | 0 mm | - | 93 W/m² | - |
| 1777644775 | 8.89° C | 98% | 1031.1 hPa | 0 mm | - | 86 W/m² | - |
| 1777644472 | 8.33° C | 98% | 1031.1 hPa | 0 mm | - | 79 W/m² | - |
| 1777644169 | 8.33° C | 98% | 1031.1 hPa | 0 mm | - | 72 W/m² | - |
| 1777643865 | 7.78° C | 98% | 1031.2 hPa | 0 mm | - | 66 W/m² | - |
| 1777643563 | 7.78° C | 98% | 1031.1 hPa | 0 mm | - | 59 W/m² | - |
| 1777643259 | 7.78° C | 98% | 1031.1 hPa | 0 mm | - | 51 W/m² | - |
| 1777642956 | 7.78° C | 98% | 1030.9 hPa | 0 mm | - | 44 W/m² | - |
| 1777642652 | 7.78° C | 98% | 1031 hPa | 0 mm | - | 37 W/m² | - |
| 1777642349 | 7.78° C | 98% | 1030.7 hPa | 0 mm | - | 31 W/m² | - |
| 1777642046 | 7.22° C | 98% | 1030.7 hPa | 0 mm | - | 25 W/m² | - |
| 1777641742 | 7.22° C | 98% | 1030.6 hPa | 0 mm | - | 20 W/m² | - |
| 1777641437 | 7.78° C | 98% | 1030.8 hPa | 0 mm | - | 16 W/m² | - |
| 1777641133 | 7.78° C | 98% | 1030.7 hPa | 0 mm | - | 13 W/m² | - |
| 1777640829 | 7.78° C | 98% | 1030.6 hPa | 0 mm | - | 9 W/m² | - |
| 1777640526 | 7.22° C | 98% | 1030.7 hPa | 0 mm | - | 7 W/m² | - |
| 1777640223 | 7.22° C | 97% | 1030.5 hPa | 0 mm | - | 5 W/m² | - |
| 1777639919 | 7.22° C | 97% | 1030.4 hPa | 0 mm | - | 3 W/m² | - |
| 1777639616 | 7.22° C | 97% | 1030.6 hPa | 0 mm | - | 2 W/m² | - |
| 1777639313 | 7.22° C | 96% | 1030.5 hPa | 0 mm | - | 1 W/m² | - |
| 1777639009 | 7.22° C | 96% | 1030.5 hPa | 0 mm | - | 1 W/m² | - |
| 1777638705 | 7.78° C | 95% | 1030.5 hPa | 0 mm | - | 0 W/m² | - |
* Rain latest hour (hover to see other rain measurements)
** Current wind speed in m/s (hover to see current wind gust speed)